Station Historical Data
Daily Summary for October 30, 2017 Units:  English    Metric   Both
« Previous Day
Next Day »
Daily Weekly Monthly Yearly Custom
  High: Low: Average:
Temperature: 48.8 °F 39.2 °F 43.7 °F
Dew Point: 39.1 °F 32.7 °F 36.8 °F
Humidity: 90% 58% 77%
Wind Speed: 21.0mph 0.0mph 8.3mph
Wind Gust: 31.0mph - -
Wind- - West
Pressure: 29.73 in 29.37 in -
Precipitation: 0.00 in    
Historical Graphs
 
 
Tabular Data for October 30, 2017
Time Temperature Dew Point Pressure Wind Wind Speed Wind Gust Humidity Rainfall Rate (Hourly)
00:04 44.0 °F 38.9 °F 29.47 in WNW 7.0 mph 13.0 mph 82% 0.00 in
00:09 44.0 °F 38.9 °F 29.46 in WNW 6.0 mph 12.0 mph 82% 0.00 in
00:14 44.0 °F 38.5 °F 29.45 in NW 5.0 mph 13.0 mph 81% 0.00 in
00:19 44.0 °F 38.5 °F 29.45 in NW 4.0 mph 13.0 mph 81% 0.00 in
00:24 44.0 °F 38.5 °F 29.45 in NW 4.0 mph 10.0 mph 81% 0.00 in
00:29 44.1 °F 38.6 °F 29.44 in West 5.0 mph 10.0 mph 81% 0.00 in
00:34 44.1 °F 39.0 °F 29.44 in NW 7.0 mph 12.0 mph 82% 0.00 in
00:39 44.0 °F 38.9 °F 29.45 in NW 10.0 mph 12.0 mph 82% 0.00 in
00:44 44.0 °F 38.9 °F 29.45 in NW 7.0 mph 12.0 mph 82% 0.00 in
00:49 43.9 °F 38.8 °F 29.43 in WNW 5.0 mph 12.0 mph 82% 0.00 in
00:54 43.8 °F 38.7 °F 29.43 in NW 5.0 mph 11.0 mph 82% 0.00 in
00:59 43.8 °F 38.3 °F 29.43 in NW 4.0 mph 13.0 mph 81% 0.00 in
01:04 43.8 °F 38.7 °F 29.42 in NW 5.0 mph 15.0 mph 82% 0.00 in
01:09 43.8 °F 38.3 °F 29.42 in West 7.0 mph 10.0 mph 81% 0.00 in
01:14 43.8 °F 38.7 °F 29.42 in NNW 1.0 mph 11.0 mph 82% 0.00 in
01:19 43.8 °F 38.7 °F 29.42 in WNW 5.0 mph 11.0 mph 82% 0.00 in
01:24 43.8 °F 38.7 °F 29.41 in WNW 6.0 mph 14.0 mph 82% 0.00 in
01:29 43.8 °F 38.7 °F 29.41 in WNW 6.0 mph 14.0 mph 82% 0.00 in
01:34 43.8 °F 38.7 °F 29.41 in WNW 6.0 mph 14.0 mph 82% 0.00 in
01:39 43.8 °F 38.7 °F 29.41 in WNW 5.0 mph 11.0 mph 82% 0.00 in
01:44 43.8 °F 38.7 °F 29.41 in WNW 7.0 mph 12.0 mph 82% 0.00 in
01:49 43.8 °F 38.7 °F 29.40 in WNW 6.0 mph 15.0 mph 82% 0.00 in
01:54 43.8 °F 38.7 °F 29.40 in WNW 7.0 mph 15.0 mph 82% 0.00 in
01:59 43.8 °F 38.7 °F 29.40 in WNW 7.0 mph 14.0 mph 82% 0.00 in
02:04 43.8 °F 38.3 °F 29.40 in WNW 8.0 mph 17.0 mph 81% 0.00 in
02:09 43.9 °F 38.4 °F 29.39 in WNW 5.0 mph 11.0 mph 81% 0.00 in
02:14 43.9 °F 38.4 °F 29.39 in West 6.0 mph 12.0 mph 81% 0.00 in
02:19 44.0 °F 38.5 °F 29.39 in WNW 4.0 mph 15.0 mph 81% 0.00 in
02:24 44.1 °F 38.6 °F 29.39 in WNW 8.0 mph 16.0 mph 81% 0.00 in
02:29 44.1 °F 38.3 °F 29.38 in WNW 8.0 mph 18.0 mph 80% 0.00 in
02:34 44.1 °F 38.3 °F 29.38 in WNW 8.0 mph 18.0 mph 80% 0.00 in
02:39 44.1 °F 38.3 °F 29.38 in West 6.0 mph 12.0 mph 80% 0.00 in
02:44 44.1 °F 38.3 °F 29.38 in WNW 6.0 mph 11.0 mph 80% 0.00 in
02:49 44.1 °F 38.3 °F 29.38 in NW 8.0 mph 15.0 mph 80% 0.00 in
02:54 44.1 °F 38.3 °F 29.38 in WNW 7.0 mph 15.0 mph 80% 0.00 in
02:59 44.0 °F 38.2 °F 29.38 in WNW 7.0 mph 15.0 mph 80% 0.00 in
03:04 44.1 °F 38.3 °F 29.38 in WNW 7.0 mph 14.0 mph 80% 0.00 in
03:09 44.1 °F 38.3 °F 29.38 in WNW 3.0 mph 16.0 mph 80% 0.00 in
03:14 44.2 °F 38.4 °F 29.38 in NNW 8.0 mph 15.0 mph 80% 0.00 in
03:19 44.3 °F 38.5 °F 29.38 in NW 9.0 mph 17.0 mph 80% 0.00 in
03:24 44.3 °F 38.5 °F 29.38 in WNW 8.0 mph 18.0 mph 80% 0.00 in
03:29 44.3 °F 38.5 °F 29.38 in WNW 8.0 mph 18.0 mph 80% 0.00 in
03:34 44.4 °F 38.6 °F 29.38 in WNW 8.0 mph 20.0 mph 80% 0.00 in
03:39 44.4 °F 38.6 °F 29.37 in NW 7.0 mph 16.0 mph 80% 0.00 in
03:44 44.4 °F 38.6 °F 29.37 in WNW 8.0 mph 17.0 mph 80% 0.00 in
03:49 44.3 °F 38.5 °F 29.37 in West 6.0 mph 14.0 mph 80% 0.00 in
03:54 44.3 °F 38.8 °F 29.37 in WNW 6.0 mph 13.0 mph 81% 0.00 in
03:59 44.2 °F 38.4 °F 29.37 in WNW 7.0 mph 16.0 mph 80% 0.00 in
04:04 44.2 °F 38.4 °F 29.37 in WNW 8.0 mph 16.0 mph 80% 0.00 in
04:09 44.3 °F 38.5 °F 29.37 in WNW 7.0 mph 16.0 mph 80% 0.00 in
04:14 44.3 °F 38.5 °F 29.37 in West 10.0 mph 15.0 mph 80% 0.00 in
04:19 44.4 °F 38.3 °F 29.37 in NW 6.0 mph 18.0 mph 79% 0.00 in
04:24 44.4 °F 38.6 °F 29.38 in WNW 13.0 mph 15.0 mph 80% 0.00 in
04:29 44.4 °F 38.3 °F 29.38 in NW 17.0 mph 19.0 mph 79% 0.00 in
04:34 44.4 °F 38.3 °F 29.38 in West 11.0 mph 20.0 mph 79% 0.00 in
04:39 44.3 °F 38.2 °F 29.38 in West 10.0 mph 20.0 mph 79% 0.00 in
04:44 44.3 °F 38.2 °F 29.38 in WNW 10.0 mph 20.0 mph 79% 0.00 in
04:49 44.2 °F 38.1 °F 29.39 in West 8.0 mph 23.0 mph 79% 0.00 in
04:54 44.1 °F 38.0 °F 29.39 in NW 7.0 mph 18.0 mph 79% 0.00 in
04:59 44.0 °F 37.6 °F 29.39 in West 9.0 mph 19.0 mph 78% 0.00 in
05:04 43.8 °F 37.4 °F 29.39 in WNW 4.0 mph 17.0 mph 78% 0.00 in
05:09 43.6 °F 37.2 °F 29.40 in West 10.0 mph 19.0 mph 78% 0.00 in
05:14 43.5 °F 37.1 °F 29.40 in WNW 10.0 mph 19.0 mph 78% 0.00 in
05:19 43.5 °F 37.1 °F 29.40 in West 10.0 mph 19.0 mph 78% 0.00 in
05:24 43.6 °F 37.2 °F 29.41 in West 19.0 mph 20.0 mph 78% 0.00 in
05:29 43.5 °F 37.1 °F 29.41 in West 8.0 mph 19.0 mph 78% 0.00 in
05:34 43.5 °F 37.1 °F 29.41 in West 10.0 mph 23.0 mph 78% 0.00 in
05:39 43.4 °F 37.0 °F 29.41 in WNW 11.0 mph 25.0 mph 78% 0.00 in
05:44 43.4 °F 36.7 °F 29.41 in WNW 11.0 mph 25.0 mph 77% 0.00 in
05:49 43.4 °F 36.3 °F 29.42 in WNW 11.0 mph 22.0 mph 76% 0.00 in
05:54 43.4 °F 36.0 °F 29.42 in West 8.0 mph 26.0 mph 75% 0.00 in
05:59 43.4 °F 35.7 °F 29.42 in WNW 10.0 mph 29.0 mph 74% 0.00 in
06:04 43.4 °F 35.3 °F 29.42 in WSW 11.0 mph 24.0 mph 73% 0.00 in
06:09 43.3 °F 35.2 °F 29.42 in West 5.0 mph 15.0 mph 73% 0.00 in
06:14 43.3 °F 34.9 °F 29.42 in WNW 9.0 mph 22.0 mph 72% 0.00 in
06:19 43.3 °F 34.9 °F 29.42 in West 11.0 mph 23.0 mph 72% 0.00 in
06:24 43.3 °F 34.5 °F 29.42 in West 15.0 mph 21.0 mph 71% 0.00 in
06:29 43.2 °F 34.4 °F 29.42 in WNW 10.0 mph 23.0 mph 71% 0.00 in
06:34 43.2 °F 34.4 °F 29.42 in West 13.0 mph 18.0 mph 71% 0.00 in
06:39 43.2 °F 34.1 °F 29.43 in NNW 8.0 mph 20.0 mph 70% 0.00 in
06:44 43.1 °F 34.3 °F 29.43 in West 11.0 mph 27.0 mph 71% 0.00 in
06:49 43.0 °F 34.2 °F 29.43 in West 11.0 mph 27.0 mph 71% 0.00 in
06:54 42.8 °F 34.4 °F 29.43 in West 10.0 mph 22.0 mph 72% 0.00 in
06:59 42.8 °F 34.4 °F 29.43 in WNW 6.0 mph 18.0 mph 72% 0.00 in
07:04 42.7 °F 34.3 °F 29.43 in WSW 9.0 mph 25.0 mph 72% 0.00 in
07:09 42.5 °F 34.1 °F 29.44 in WNW 13.0 mph 20.0 mph 72% 0.00 in
07:14 42.5 °F 34.1 °F 29.44 in West 9.0 mph 25.0 mph 72% 0.00 in
07:19 42.3 °F 33.9 °F 29.44 in West 10.0 mph 25.0 mph 72% 0.00 in
07:24 42.1 °F 34.1 °F 29.44 in West 8.0 mph 17.0 mph 73% 0.00 in
07:29 41.9 °F 33.9 °F 29.44 in West 15.0 mph 21.0 mph 73% 0.00 in
07:34 41.7 °F 33.7 °F 29.45 in West 7.0 mph 21.0 mph 73% 0.00 in
07:39 41.6 °F 33.6 °F 29.45 in West 8.0 mph 19.0 mph 73% 0.00 in
07:44 41.5 °F 33.5 °F 29.45 in West 10.0 mph 19.0 mph 73% 0.00 in
07:49 41.5 °F 33.5 °F 29.46 in West 10.0 mph 20.0 mph 73% 0.00 in
07:54 41.5 °F 33.5 °F 29.46 in West 10.0 mph 20.0 mph 73% 0.00 in
07:59 41.3 °F 33.3 °F 29.46 in West 6.0 mph 23.0 mph 73% 0.00 in
08:04 41.1 °F 33.4 °F 29.47 in West 7.0 mph 23.0 mph 74% 0.00 in
08:09 41.0 °F 33.3 °F 29.47 in West 3.0 mph 15.0 mph 74% 0.00 in
08:14 40.9 °F 33.6 °F 29.47 in West 3.0 mph 14.0 mph 75% 0.00 in
08:19 40.8 °F 33.5 °F 29.47 in West 6.0 mph 14.0 mph 75% 0.00 in
08:24 40.8 °F 33.5 °F 29.48 in West 7.0 mph 15.0 mph 75% 0.00 in
08:29 40.9 °F 33.6 °F 29.48 in West 7.0 mph 15.0 mph 75% 0.00 in
08:34 40.9 °F 33.6 °F 29.48 in West 5.0 mph 15.0 mph 75% 0.00 in
08:39 41.0 °F 33.3 °F 29.49 in West 5.0 mph 15.0 mph 74% 0.00 in
08:44 41.1 °F 33.4 °F 29.49 in West 9.0 mph 16.0 mph 74% 0.00 in
08:49 41.2 °F 33.2 °F 29.49 in West 9.0 mph 12.0 mph 73% 0.00 in
08:54 41.5 °F 33.5 °F 29.49 in WSW 7.0 mph 17.0 mph 73% 0.00 in
08:59 41.7 °F 33.3 °F 29.49 in WSW 8.0 mph 17.0 mph 72% 0.00 in
09:04 42.1 °F 33.7 °F 29.49 in WSW 8.0 mph 17.0 mph 72% 0.00 in
09:09 42.7 °F 33.9 °F 29.49 in West 3.0 mph 13.0 mph 71% 0.00 in
09:14 43.2 °F 34.1 °F 29.49 in SSW 6.0 mph 18.0 mph 70% 0.00 in
09:19 43.6 °F 33.7 °F 29.49 in WSW 14.0 mph 18.0 mph 68% 0.00 in
09:24 43.7 °F 33.5 °F 29.49 in SW 8.0 mph 19.0 mph 67% 0.00 in
09:29 43.8 °F 33.2 °F 29.49 in West 9.0 mph 20.0 mph 66% 0.00 in
09:39 44.2 °F 33.6 °F 29.50 in WSW 6.0 mph 18.0 mph 66% 0.00 in
09:44 44.1 °F 33.5 °F 29.50 in WNW 7.0 mph 21.0 mph 66% 0.00 in
09:49 44.1 °F 33.5 °F 29.50 in SSW 7.0 mph 26.0 mph 66% 0.00 in
09:54 44.2 °F 33.6 °F 29.50 in NW 8.0 mph 22.0 mph 66% 0.00 in
09:59 44.4 °F 33.7 °F 29.51 in West 9.0 mph 22.0 mph 66% 0.00 in
10:04 44.7 °F 34.0 °F 29.51 in West 9.0 mph 19.0 mph 66% 0.00 in
10:09 45.0 °F 33.9 °F 29.52 in West 9.0 mph 19.0 mph 65% 0.00 in
10:19 45.2 °F 33.3 °F 29.52 in West 15.0 mph 27.0 mph 63% 0.00 in
10:24 45.6 °F 33.7 °F 29.52 in West 5.0 mph 18.0 mph 63% 0.00 in
10:29 45.9 °F 33.2 °F 29.52 in SW 9.0 mph 19.0 mph 61% 0.00 in
10:34 46.1 °F 33.4 °F 29.52 in West 9.0 mph 21.0 mph 61% 0.00 in
10:39 46.5 °F 33.4 °F 29.52 in West 10.0 mph 21.0 mph 60% 0.00 in
10:44 47.1 °F 34.3 °F 29.52 in West 10.0 mph 21.0 mph 61% 0.00 in
10:49 47.3 °F 34.1 °F 29.52 in West 12.0 mph 20.0 mph 60% 0.00 in
10:54 46.7 °F 32.7 °F 29.53 in West 13.0 mph 26.0 mph 58% 0.00 in
10:59 46.5 °F 33.4 °F 29.53 in SW 2.0 mph 25.0 mph 60% 0.00 in
11:04 46.7 °F 33.1 °F 29.52 in West 13.0 mph 28.0 mph 59% 0.00 in
11:09 46.9 °F 33.7 °F 29.53 in West 12.0 mph 28.0 mph 60% 0.00 in
11:14 46.7 °F 34.0 °F 29.53 in West 11.0 mph 26.0 mph 61% 0.00 in
11:19 46.3 °F 34.0 °F 29.53 in NNW 10.0 mph 18.0 mph 62% 0.00 in
11:24 45.9 °F 33.6 °F 29.53 in WSW 6.0 mph 28.0 mph 62% 0.00 in
11:29 45.8 °F 33.9 °F 29.53 in WNW 14.0 mph 20.0 mph 63% 0.00 in
11:34 45.8 °F 34.3 °F 29.53 in West 11.0 mph 23.0 mph 64% 0.00 in
11:39 46.0 °F 34.5 °F 29.53 in West 11.0 mph 23.0 mph 64% 0.00 in
11:44 46.5 °F 34.6 °F 29.53 in West 10.0 mph 20.0 mph 63% 0.00 in
11:54 47.4 °F 35.4 °F 29.53 in WSW 4.0 mph 17.0 mph 63% 0.00 in
11:59 47.7 °F 35.7 °F 29.53 in WSW 8.0 mph 20.0 mph 63% 0.00 in
12:04 48.0 °F 36.0 °F 29.53 in WSW 9.0 mph 16.0 mph 63% 0.00 in
12:09 47.9 °F 35.9 °F 29.53 in South 14.0 mph 21.0 mph 63% 0.00 in
12:14 48.0 °F 36.0 °F 29.52 in West 9.0 mph 21.0 mph 63% 0.00 in
12:24 48.8 °F 36.4 °F 29.52 in WSW 6.0 mph 18.0 mph 62% 0.00 in
12:29 48.6 °F 36.6 °F 29.52 in WSW 6.0 mph 16.0 mph 63% 0.00 in
12:34 48.7 °F 36.7 °F 29.51 in WNW 14.0 mph 19.0 mph 63% 0.00 in
12:39 48.8 °F 36.8 °F 29.51 in West 13.0 mph 20.0 mph 63% 0.00 in
12:44 48.5 °F 36.5 °F 29.51 in West 10.0 mph 20.0 mph 63% 0.00 in
12:49 48.3 °F 36.7 °F 29.51 in West 9.0 mph 18.0 mph 64% 0.00 in
12:54 48.2 °F 37.0 °F 29.50 in SW 9.0 mph 19.0 mph 65% 0.00 in
12:59 48.0 °F 37.2 °F 29.50 in WNW 8.0 mph 19.0 mph 66% 0.00 in
13:04 48.3 °F 38.2 °F 29.51 in West 11.0 mph 20.0 mph 68% 0.00 in
13:09 48.4 °F 39.1 °F 29.50 in West 10.0 mph 24.0 mph 70% 0.00 in
13:14 48.3 °F 39.0 °F 29.50 in SW 11.0 mph 27.0 mph 70% 0.00 in
13:19 48.2 °F 38.5 °F 29.50 in SW 12.0 mph 27.0 mph 69% 0.00 in
13:24 48.0 °F 37.9 °F 29.51 in WSW 13.0 mph 29.0 mph 68% 0.00 in
13:29 47.8 °F 37.7 °F 29.51 in WSW 14.0 mph 29.0 mph 68% 0.00 in
13:34 47.8 °F 38.1 °F 29.50 in WSW 12.0 mph 24.0 mph 69% 0.00 in
13:39 47.6 °F 38.3 °F 29.51 in SW 11.0 mph 23.0 mph 70% 0.00 in
13:44 47.5 °F 37.8 °F 29.51 in SW 11.0 mph 22.0 mph 69% 0.00 in
13:49 47.3 °F 37.6 °F 29.51 in SSW 15.0 mph 22.0 mph 69% 0.00 in
13:54 47.3 °F 37.3 °F 29.50 in WSW 12.0 mph 24.0 mph 68% 0.00 in
13:59 47.2 °F 36.8 °F 29.51 in South 10.0 mph 22.0 mph 67% 0.00 in
14:04 47.2 °F 37.5 °F 29.51 in WSW 15.0 mph 31.0 mph 69% 0.00 in
14:09 46.9 °F 36.9 °F 29.51 in SW 5.0 mph 25.0 mph 68% 0.00 in
14:14 46.7 °F 36.7 °F 29.51 in South 8.0 mph 26.0 mph 68% 0.00 in
14:19 46.7 °F 36.3 °F 29.51 in WSW 17.0 mph 29.0 mph 67% 0.00 in
14:24 46.7 °F 36.7 °F 29.51 in WSW 11.0 mph 29.0 mph 68% 0.00 in
14:29 46.5 °F 37.2 °F 29.52 in WSW 10.0 mph 22.0 mph 70% 0.00 in
14:34 46.4 °F 36.8 °F 29.52 in WSW 11.0 mph 25.0 mph 69% 0.00 in
14:39 46.5 °F 36.1 °F 29.52 in WSW 12.0 mph 25.0 mph 67% 0.00 in
14:44 46.4 °F 36.0 °F 29.52 in South 10.0 mph 22.0 mph 67% 0.00 in
14:54 46.2 °F 36.2 °F 29.52 in SSW 14.0 mph 26.0 mph 68% 0.00 in
15:04 45.8 °F 37.3 °F 29.52 in SW 9.0 mph 24.0 mph 72% 0.00 in
15:09 45.4 °F 37.6 °F 29.52 in SW 6.0 mph 24.0 mph 74% 0.00 in
15:14 45.2 °F 37.7 °F 29.53 in SW 7.0 mph 23.0 mph 75% 0.00 in
15:19 45.1 °F 37.6 °F 29.53 in WSW 18.0 mph 28.0 mph 75% 0.00 in
15:24 45.1 °F 38.0 °F 29.53 in West 17.0 mph 23.0 mph 76% 0.00 in
15:29 45.2 °F 38.4 °F 29.53 in WSW 12.0 mph 23.0 mph 77% 0.01 in
15:34 45.1 °F 38.6 °F 29.53 in WSW 11.0 mph 23.0 mph 78% 0.01 in
15:39 45.0 °F 38.2 °F 29.54 in WSW 12.0 mph 26.0 mph 77% 0.01 in
15:44 45.0 °F 38.2 °F 29.54 in WSW 12.0 mph 27.0 mph 77% 0.01 in
15:49 44.9 °F 38.5 °F 29.54 in WSW 11.0 mph 27.0 mph 78% 0.02 in
15:54 44.8 °F 38.7 °F 29.55 in WSW 7.0 mph 22.0 mph 79% 0.02 in
15:59 44.6 °F 38.5 °F 29.55 in SW 14.0 mph 21.0 mph 79% 0.03 in
16:04 44.7 °F 38.6 °F 29.55 in WSW 17.0 mph 28.0 mph 79% 0.03 in
16:09 44.8 °F 38.7 °F 29.55 in SW 9.0 mph 27.0 mph 79% 0.03 in
16:14 44.7 °F 38.6 °F 29.55 in SSW 5.0 mph 25.0 mph 79% 0.04 in
16:19 44.6 °F 38.5 °F 29.55 in WSW 7.0 mph 18.0 mph 79% 0.04 in
16:24 44.4 °F 38.3 °F 29.55 in SSW 6.0 mph 20.0 mph 79% 0.05 in
16:29 44.3 °F 38.5 °F 29.55 in SW 8.0 mph 17.0 mph 80% 0.04 in
16:34 44.2 °F 38.7 °F 29.56 in WSW 9.0 mph 22.0 mph 81% 0.05 in
16:39 44.1 °F 38.6 °F 29.56 in WSW 10.0 mph 28.0 mph 81% 0.06 in
16:44 43.9 °F 38.8 °F 29.56 in SW 11.0 mph 28.0 mph 82% 0.07 in
16:49 43.8 °F 38.7 °F 29.56 in SW 11.0 mph 28.0 mph 82% 0.08 in
16:54 43.6 °F 38.8 °F 29.56 in SW 11.0 mph 23.0 mph 83% 0.09 in
16:59 43.6 °F 38.8 °F 29.56 in SW 12.0 mph 23.0 mph 83% 0.09 in
17:04 43.6 °F 39.1 °F 29.56 in West 4.0 mph 15.0 mph 84% 0.10 in
17:09 43.5 °F 39.0 °F 29.57 in WSW 9.0 mph 22.0 mph 84% 0.12 in
17:14 43.4 °F 38.9 °F 29.57 in SW 8.0 mph 21.0 mph 84% 0.12 in
17:19 43.1 °F 38.9 °F 29.57 in West 14.0 mph 25.0 mph 85% 0.14 in
17:24 43.1 °F 38.9 °F 29.58 in West 6.0 mph 17.0 mph 85% 0.14 in
17:29 43.1 °F 38.9 °F 29.58 in SW 14.0 mph 22.0 mph 85% 0.16 in
17:34 43.0 °F 38.8 °F 29.58 in WNW 14.0 mph 26.0 mph 85% 0.17 in
17:39 42.8 °F 38.9 °F 29.58 in WSW 11.0 mph 26.0 mph 86% 0.18 in
17:44 42.7 °F 38.8 °F 29.59 in WSW 9.0 mph 20.0 mph 86% 0.21 in
17:49 42.1 °F 38.2 °F 29.59 in WSW 9.0 mph 25.0 mph 86% 0.24 in
17:54 41.9 °F 38.0 °F 29.60 in WSW 9.0 mph 25.0 mph 86% 0.26 in
17:59 41.9 °F 38.3 °F 29.60 in WSW 9.0 mph 21.0 mph 87% 0.30 in
18:04 41.6 °F 37.7 °F 29.60 in WSW 10.0 mph 21.0 mph 86% 0.34 in
18:09 41.1 °F 37.2 °F 29.61 in WSW 7.0 mph 20.0 mph 86% 0.35 in
18:14 40.8 °F 36.9 °F 29.61 in WSW 10.0 mph 26.0 mph 86% 0.39 in
18:19 40.9 °F 37.3 °F 29.61 in WNW 9.0 mph 17.0 mph 87% 0.40 in
18:24 41.1 °F 37.5 °F 29.62 in WNW 8.0 mph 21.0 mph 87% 0.42 in
18:29 41.3 °F 38.0 °F 29.62 in West 13.0 mph 15.0 mph 88% 0.43 in
18:34 41.4 °F 38.1 °F 29.62 in NW 7.0 mph 17.0 mph 88% 0.44 in
18:39 41.5 °F 38.2 °F 29.63 in West 9.0 mph 15.0 mph 88% 0.44 in
18:44 41.8 °F 38.5 °F 29.63 in SW 10.0 mph 17.0 mph 88% 0.41 in
18:49 42.0 °F 38.7 °F 29.63 in WSW 9.0 mph 21.0 mph 88% 0.38 in
18:54 41.9 °F 38.6 °F 29.63 in WSW 11.0 mph 25.0 mph 88% 0.36 in
18:59 41.9 °F 38.6 °F 29.63 in WSW 11.0 mph 25.0 mph 88% 0.32 in
19:04 42.1 °F 38.8 °F 29.63 in WSW 9.0 mph 21.0 mph 88% 0.28 in
19:09 42.2 °F 38.9 °F 29.63 in WSW 8.0 mph 20.0 mph 88% 0.27 in
19:14 42.2 °F 38.9 °F 29.64 in WSW 8.0 mph 21.0 mph 88% 0.24 in
19:19 41.6 °F 38.3 °F 29.64 in WSW 8.0 mph 17.0 mph 88% 0.26 in
19:24 41.7 °F 38.4 °F 29.64 in West 8.0 mph 15.0 mph 88% 0.23 in
19:29 41.8 °F 38.5 °F 29.64 in West 7.0 mph 15.0 mph 88% 0.23 in
19:34 41.9 °F 38.6 °F 29.64 in West 9.0 mph 15.0 mph 88% 0.23 in
19:39 42.0 °F 38.7 °F 29.64 in SW 5.0 mph 13.0 mph 88% 0.21 in
19:44 42.0 °F 38.7 °F 29.64 in SW 3.0 mph 13.0 mph 88% 0.23 in
19:49 42.0 °F 38.7 °F 29.65 in WSW 7.0 mph 16.0 mph 88% 0.26 in
19:54 41.9 °F 38.6 °F 29.65 in WSW 7.0 mph 16.0 mph 88% 0.28 in
19:59 41.7 °F 38.4 °F 29.65 in West 7.0 mph 15.0 mph 88% 0.30 in
20:04 41.4 °F 38.1 °F 29.65 in West 7.0 mph 14.0 mph 88% 0.30 in
20:09 41.4 °F 38.1 °F 29.65 in West 5.0 mph 13.0 mph 88% 0.30 in
20:14 41.4 °F 38.1 °F 29.65 in West 4.0 mph 7.0 mph 88% 0.30 in
20:19 41.5 °F 38.5 °F 29.65 in WNW 3.0 mph 12.0 mph 89% 0.26 in
20:24 41.6 °F 38.6 °F 29.65 in West 5.0 mph 12.0 mph 89% 0.27 in
20:29 41.8 °F 38.8 °F 29.66 in WSW 5.0 mph 12.0 mph 89% 0.24 in
20:34 41.9 °F 38.9 °F 29.65 in WSW 4.0 mph 11.0 mph 89% 0.21 in
20:39 41.9 °F 38.6 °F 29.66 in SW 5.0 mph 12.0 mph 88% 0.21 in
20:44 41.4 °F 38.1 °F 29.67 in SW 7.0 mph 12.0 mph 88% 0.21 in
20:49 40.9 °F 37.6 °F 29.66 in WSW 6.0 mph 13.0 mph 88% 0.18 in
20:54 40.9 °F 37.9 °F 29.66 in SSW 7.0 mph 18.0 mph 89% 0.15 in
20:59 40.9 °F 37.9 °F 29.66 in SSW 7.0 mph 18.0 mph 89% 0.14 in
21:04 40.7 °F 37.7 °F 29.66 in SSW 6.0 mph 16.0 mph 89% 0.13 in
21:09 40.8 °F 37.8 °F 29.66 in SSW 7.0 mph 16.0 mph 89% 0.12 in
21:14 40.9 °F 37.9 °F 29.66 in SSW 7.0 mph 16.0 mph 89% 0.11 in
21:19 41.1 °F 38.1 °F 29.67 in SSW 5.0 mph 14.0 mph 89% 0.11 in
21:24 41.1 °F 38.1 °F 29.67 in SSE 21.0 mph 21.0 mph 89% 0.10 in
21:29 41.3 °F 38.3 °F 29.67 in SSW 8.0 mph 21.0 mph 89% 0.10 in
21:34 41.5 °F 38.8 °F 29.67 in SW 9.0 mph 21.0 mph 90% 0.10 in
21:39 41.7 °F 38.7 °F 29.67 in SW 4.0 mph 14.0 mph 89% 0.10 in
21:44 41.4 °F 38.4 °F 29.68 in SSW 4.0 mph 16.0 mph 89% 0.11 in
21:49 40.4 °F 37.1 °F 29.68 in SSW 3.0 mph 9.0 mph 88% 0.10 in
21:54 39.7 °F 36.4 °F 29.68 in SE 2.0 mph 9.0 mph 88% 0.11 in
21:59 39.3 °F 36.0 °F 29.68 in South 3.0 mph 9.0 mph 88% 0.09 in
22:04 39.3 °F 36.3 °F 29.68 in South 1.0 mph 6.0 mph 89% 0.09 in
22:09 39.2 °F 36.2 °F 29.69 in Calm   4.0 mph 89% 0.09 in
22:14 39.6 °F 36.9 °F 29.70 in West 2.0 mph 7.0 mph 90% 0.08 in
22:19 40.2 °F 37.5 °F 29.70 in WNW 5.0 mph 14.0 mph 90% 0.07 in
22:24 40.6 °F 37.6 °F 29.70 in West 8.0 mph 10.0 mph 89% 0.08 in
22:29 40.8 °F 37.8 °F 29.70 in WSW 7.0 mph 10.0 mph 89% 0.08 in
22:34 41.0 °F 37.4 °F 29.70 in West 5.0 mph 10.0 mph 87% 0.08 in
22:39 41.2 °F 37.0 °F 29.71 in West 6.0 mph 12.0 mph 85% 0.08 in
22:44 41.3 °F 36.5 °F 29.71 in West 6.0 mph 15.0 mph 83% 0.04 in
22:49 41.6 °F 35.9 °F 29.71 in WNW 10.0 mph 18.0 mph 80% 0.03 in
22:54 41.8 °F 35.4 °F 29.71 in NW 7.0 mph 13.0 mph 78% 0.02 in
22:59 41.9 °F 34.9 °F 29.71 in WNW 3.0 mph 15.0 mph 76% 0.02 in
23:04 42.0 °F 35.0 °F 29.71 in West 6.0 mph 15.0 mph 76% 0.02 in
23:09 42.0 °F 34.6 °F 29.72 in West 5.0 mph 10.0 mph 75% 0.01 in
23:24 42.0 °F 34.3 °F 29.72 in West 7.0 mph 10.0 mph 74% 0.00 in
23:29 42.0 °F 34.3 °F 29.72 in West 4.0 mph 10.0 mph 74% 0.00 in
23:30 42.0 °F 34.3 °F 29.72 in SW 7.0 mph 10.0 mph 74% 0.00 in
23:34 42.2 °F 34.2 °F 29.73 in West 5.0 mph 13.0 mph 73% 0.00 in
23:39 42.4 °F 34.4 °F 29.73 in WSW 6.0 mph 13.0 mph 73% 0.00 in
23:49 42.5 °F 34.5 °F 29.73 in WSW 2.0 mph 9.0 mph 73% 0.00 in
23:54 42.5 °F 34.5 °F 29.73 in WSW 3.0 mph 9.0 mph 73% 0.00 in
23:59 42.6 °F 34.5 °F 29.73 in WNW 4.0 mph 6.0 mph 73% 0.00 in
Buffalo, New York, USA
Compliments of Weather Underground - 2.25 mb